Regional Weather Roundup
Issued by NWS Bismarck, ND

Home | Current Version | Previous Version | Text Only | Print | Product List | Glossary On
Versions: 1 2 3 4 5 6 7 8 9 10 11 12 13 14 15 16 17 18 19 20 21 22 23 24 25 26 27 28 29 30 31 32 33 34 35 36 37 38 39 40 41 42 43 44 45 46 47 48 49 50
000
ASUS43 KBIS 262010
RWRBIS

NWR BROADCAST TEXT
NATIONAL WEATHER SERVICE BISMARCK ND
300 PM CDT WED JUL 26 2017

NOTE: "FAIR" INDICATES FEW OR NO CLOUDS BELOW 12,000 FEET WITH NO
SIGNIFICANT WEATHER AND/OR OBSTRUCTIONS TO VISIBILITY.


CITY           SKY/WX    TMP DP  RH WIND       PRES   REMARKS
WILLISTON      SUNNY     89  46  22 E5        30.11F
MINOT          MOSUNNY   85  53  33 N12       30.13S
MINOT AFB      SUNNY     81  53  37 N6        30.12S
BISMARCK       SUNNY     87  53  31 N12G20    30.11F
DICKINSON      SUNNY     89  50  26 VRB6      30.12F
GARRISON         N/A     83  51  33 N9G20     30.13S
HETTINGER ARPT SUNNY     89  48  24 N8        30.15F
JAMESTOWN      MOSUNNY   83  56  39 N12G20    30.09F
HAZEN            N/A     84  50  30 N13       30.13F
LINTON           N/A    N/A N/A N/A N7G14     30.13S
MANDAN         FAIR      84  52  32 N5G14     30.13S
STANLEY        FAIR      81  50  34 CALM      30.17S
TIOGA          FAIR      82  48  30 NE10G18   30.15F
WATFORD CITY   FAIR      86  48  26 N5        30.11F
$$

CITY           SKY/WX    TMP DP  RH WIND       PRES   REMARKS
GRAND FORKS    MOSUNNY   82  62  50 N10       30.05S
GRAND FORKS AF MOSUNNY   80  59  48 N8        30.07S
DEVILS LAKE    MOSUNNY   78  57  48 N10       30.12S
FARGO          MOSUNNY   82  61  48 N12       30.05S
CAVALIER       FAIR      79  61  53 N8G16     30.06F
GRAFTON        FAIR      81  61  50 N9        30.08S
GWINNER        PTCLDY    82  61  47 N12       30.07F
LANGDON        FAIR      77  59  53 N14       30.12S
ROLLA            N/A     77  59  53 N9        30.14F
$$

CITY           SKY/WX    TMP DP  RH WIND       PRES   REMARKS
ABERDEEN       MOSUNNY   83  60  45 E8        30.08F
MOBRIDGE       SUNNY     87  58  37 N9        30.08F
BUFFALO          N/A     89  49  25 S8        30.08F
RAPID CITY     MOSUNNY   82  49  31 NE5       30.18F
GLASGOW        SUNNY     87  43  21 VRB3      30.08F
SIDNEY         SUNNY     89  50  26 E10       30.09F
WOLF POINT     SUNNY     91  46  21 VRB3      30.07F
GLENDIVE       SUNNY     89  49  25 SE8       30.10F
MILES CITY     MOSUNNY   91  49  23 MISG      30.07F
BAKER          SUNNY     91  43  18 S9        30.13F
$$

CITY           SKY/WX    TMP DP  RH WIND       PRES   REMARKS
BILLINGS       MOSUNNY   85  49  28 CALM      30.11F
GREAT FALLS    SUNNY     87  41  19 VRB3      30.07F
REGINA         MOSUNNY   81  48  32 NW7       30.12F
ESTEVAN        MOSUNNY   81  52  36 S2        30.14F
$$





USA.gov is the U.S. government's official web portal to all federal, state and local government web resources and services.